Anchorage Merrill, AK

12:01 PM AKDT on August 21, 2017 (GMT -0800)
Merrill

Weather History for PAMR - January, 2014

Change the Weather History Date:

Sunday, January 12, 2014

  Actual Average Record
Temperature  
Mean Temperature 14 °F -  
Max Temperature 18 °F 20 °F 37 °F (2013)
Min Temperature 12 °F 8 °F -14 °F (2000)
Degree Days  
Heating Degree Days 50    
Moisture  
Dew Point 9 °F    
Average Humidity 77    
Maximum Humidity 86    
Minimum Humidity 73    
Precipitation  
Precipitation 0.04 in - - ()
Sea Level Pressure  
Sea Level Pressure 29.20 in    
Wind  
Wind Speed 5 mph (North)    
Max Wind Speed 9 mph    
Max Gust Speed -    
Visibility 6 miles    
Events Snow    
Averages and records for this station are not official NWS values.
T = Trace of Precipitation, MM = Missing Value Source: NWS Daily Summary

Daily Weather History Graph

Daily Weather History Graph

Search for Another Location

Airport or City:

Trip Planner

Search our weather history database for the weather conditions in past years. The results will help you decide how hot, cold, wet, or windy it might be!

Date:

Astronomy

Jan. 12, 2014 Rise Set
Actual Time 10:01 AM AKST 4:15 PM AKST
Civil Twilight 9:04 AM AKST 5:12 PM AKST
Nautical Twilight 8:06 AM AKST 6:09 PM AKST
Astronomical Twilight 7:14 AM AKST 7:01 PM AKST
Moon 1:57 PM AKST (1/12) 7:00 AM AKST (1/12)
Length of Visible Light 8h 08m
Length of Day
6h 13m
Waxing Gibbous, 90% of the Moon is Illuminated
Jan 12
Waxing Gibbous
Jan 15
Full
Jan 23
Last Quarter
Jan 30
New
Feb 6
First Quarter

Hourly Weather History & Observations

Time (AKST) Temp. Windchill Dew Point Humidity Pressure Visibility Wind Dir Wind Speed Gust Speed Precip Events Conditions
12:53 AM 17.1 °F 7.6 °F 10.9 °F 77% 29.13 in 10.0 mi NNE 6.9 mph - N/A   Overcast
1:53 AM 17.1 °F 7.6 °F 12.0 °F 81% 29.14 in 10.0 mi North 6.9 mph - N/A   Overcast
3:53 AM 15.1 °F 5.2 °F 10.0 °F 80% 29.13 in 10.0 mi North 6.9 mph - N/A   Overcast
4:53 AM 14.0 °F 3.9 °F 8.1 °F 77% 29.13 in 10.0 mi North 6.9 mph - N/A   Overcast
5:53 AM 12.9 °F 2.6 °F 7.0 °F 77% 29.12 in 10.0 mi North 6.9 mph - N/A   Overcast
6:53 AM 12.0 °F 0.5 °F 6.1 °F 77% 29.12 in 10.0 mi North 8.1 mph - N/A   Overcast
7:24 AM 12.2 °F 1.7 °F 5.0 °F 73% 29.11 in - North 6.9 mph - N/A   Overcast
7:53 AM 12.0 °F -0.4 °F 5.0 °F 73% 29.12 in 10.0 mi North 9.2 mph - N/A   Overcast
8:53 AM 12.0 °F 1.5 °F 5.0 °F 73% 29.12 in 10.0 mi North 6.9 mph - N/A   Overcast
9:25 AM 12.2 °F 1.7 °F 5.0 °F 73% 29.12 in 4.0 mi North 6.9 mph - 0.00 in Snow Light Snow
9:53 AM 12.0 °F 1.5 °F 5.0 °F 73% 29.13 in 4.0 mi North 6.9 mph - 0.00 in Snow Light Snow
10:53 AM 12.9 °F 5.2 °F 7.0 °F 77% 29.14 in 7.0 mi North 4.6 mph - 0.00 in   Overcast
11:21 AM 12.2 °F 2.9 °F 6.8 °F 79% 29.13 in 2.0 mi North 5.8 mph - 0.00 in Snow Light Snow
11:53 AM 12.9 °F 5.2 °F 7.0 °F 77% 29.14 in 4.0 mi North 4.6 mph - 0.01 in Snow Light Snow
12:19 PM 12.2 °F 2.9 °F 6.8 °F 79% 29.14 in 4.0 mi North 5.8 mph - 0.00 in Snow Light Snow
12:20 PM 14.0 °F 5.1 °F 6.8 °F 73% 29.14 in 1.5 mi North 5.8 mph - 0.00 in Snow Light Snow
12:53 PM 14.0 °F 6.5 °F 7.0 °F 74% 29.16 in 1.5 mi North 4.6 mph - 0.00 in   Overcast
1:53 PM 14.0 °F 8.2 °F 8.1 °F 77% 29.17 in 3.0 mi NNE 3.5 mph - 0.01 in Snow Light Snow
2:00 PM 14.0 °F 6.5 °F 8.6 °F 79% 29.16 in 2.0 mi North 4.6 mph - 0.00 in Snow Light Snow
2:20 PM 14.0 °F 8.2 °F 8.6 °F 79% 29.17 in 6.0 mi North 3.5 mph - 0.00 in Snow Light Snow
2:53 PM 14.0 °F - 8.1 °F 77% 29.19 in 6.0 mi Calm Calm - 0.00 in Snow Light Snow
3:53 PM 14.0 °F 8.2 °F 8.1 °F 77% 29.19 in - NNW 3.5 mph - 0.00 in Snow Light Snow
4:20 PM 14.0 °F 8.2 °F 8.6 °F 79% 29.19 in 4.0 mi NNW 3.5 mph - 0.00 in Snow Light Snow
4:53 PM 14.0 °F - 9.0 °F 80% 29.21 in 4.0 mi Calm Calm - 0.00 in Snow Light Snow
5:14 PM 14.0 °F - 10.4 °F 86% 29.21 in - Calm Calm - 0.00 in Snow Light Snow
5:21 PM 15.8 °F 10.2 °F 10.4 °F 79% 29.21 in 2.5 mi NE 3.5 mph - 0.00 in Snow Light Snow
5:40 PM 15.8 °F 10.2 °F 10.4 °F 79% 29.21 in 2.5 mi North 3.5 mph - 0.00 in Snow Light Snow
5:49 PM 15.8 °F - 10.4 °F 79% 29.22 in 0.8 mi Calm Calm - 0.01 in Snow Light Snow
5:53 PM 15.1 °F 9.4 °F 10.0 °F 80% 29.23 in 0.8 mi North 3.5 mph - 0.01 in Snow Light Snow
6:53 PM 15.1 °F 9.4 °F 10.0 °F 80% 29.25 in 3.0 mi North 3.5 mph - 0.00 in Snow Light Snow
7:00 PM 15.8 °F - 10.4 °F 79% 29.24 in 6.0 mi Calm Calm - 0.00 in Snow Light Snow
7:22 PM 15.8 °F - 10.4 °F 79% 29.25 in 2.0 mi Calm Calm - 0.00 in Snow Light Snow
7:53 PM 15.1 °F - 10.0 °F 80% 29.29 in 2.0 mi Calm Calm - 0.01 in Snow Light Snow
8:15 PM 14.0 °F 6.5 °F 8.6 °F 79% 29.28 in 3.0 mi East 4.6 mph - 0.00 in Snow Light Snow
8:53 PM 16.0 °F - 10.0 °F 77% 29.31 in 3.0 mi Calm Calm - 0.00 in Snow Light Snow
9:00 PM 15.8 °F - 10.4 °F 79% 29.31 in 6.0 mi Calm Calm - 0.00 in Snow Light Snow
9:53 PM 16.0 °F - 10.0 °F 77% 29.35 in 10.0 mi Calm Calm - 0.00 in   Overcast
10:46 PM 17.6 °F - 10.4 °F 73% 29.36 in 10.0 mi Calm Calm - N/A   Overcast
10:53 PM 17.1 °F - 10.0 °F 74% 29.37 in 10.0 mi Calm Calm - N/A   Overcast
11:53 PM 18.0 °F - 10.9 °F 74% 29.40 in 10.0 mi Calm Calm - N/A   Overcast